Weather History for KCVG - February, 2014

Change the Weather History Date:

Friday, February 21, 2014

  Actual Average Record
Temperature  
Mean Temperature 42 °F 36 °F  
Max Temperature 52 °F 45 °F 70 °F (1930)
Min Temperature 31 °F 27 °F -10 °F (1885)
Degree Days  
Heating Degree Days 23 29  
Month to date heating degree days 765 660  
Since 1 July heating degree days 3988 3632  
Cooling Degree Days 0 0  
Month to date cooling degree days 0 0  
Year to date cooling degree days 0 0  
Moisture  
Dew Point 24 °F    
Average Humidity 59    
Maximum Humidity 89    
Minimum Humidity 28    
Precipitation  
Precipitation 0.00 in 0.10 in 2.73 in (1874)
Month to date precipitation 2.70 2.12  
Year to date precipitation 5.50 5.12  
Snow  
Snow 0.00 in 0.20 in 5.00 in (1893)
Month to date snowfall 9.8 5.2  
Since 1 July snowfall 43.0 17.3  
Snow Depth 0.00 in    
Sea Level Pressure  
Sea Level Pressure 29.85 in    
Wind  
Wind Speed 11 mph (SW)    
Max Wind Speed 26 mph    
Max Gust Speed 38 mph    
Visibility 10 miles    
Events Rain    
T = Trace of Precipitation, MM = Missing Value Source: NWS Daily Summary

Daily Weather History Graph

Daily Weather History Graph

Search for Another Location

Airport or City:

Trip Planner

Search our weather history database for the weather conditions in past years. The results will help you decide how hot, cold, wet, or windy it might be!

Date:

Astronomy

Feb. 21, 2014 Rise Set
Actual Time 7:22 AM EST 6:22 PM EST
Civil Twilight 6:55 AM EST 6:49 PM EST
Nautical Twilight 6:24 AM EST 7:20 PM EST
Astronomical Twilight 5:53 AM EST 7:51 PM EST
Moon 12:12 AM EST (2/21) 10:49 AM EST (2/21)
Length of Visible Light 11h 54m
Length of Day
11h 00m
Waning Gibbous, 61% of the Moon is Illuminated
Feb 21
Waning Gibbous
Feb 22
Last Quarter
Mar 1
New
Mar 8
First Quarter
Mar 16
Full

Hourly Weather History & Observations

Time (EST) Temp. Windchill Dew Point Humidity Pressure Visibility Wind Dir Wind Speed Gust Speed Precip Events Conditions
12:52 AM 46.4 °F 37.9 °F 42.8 °F 87% 29.64 in 10.0 mi West 25.3 mph 31.1 mph N/A Rain Light Rain
1:52 AM 42.8 °F 35.4 °F 37.4 °F 81% 29.68 in 10.0 mi West 15.0 mph 25.3 mph N/A   Overcast
2:52 AM 41.0 °F 35.2 °F 33.8 °F 76% 29.73 in 10.0 mi WSW 9.2 mph - N/A   Overcast
3:52 AM 39.0 °F 32.8 °F 32.0 °F 76% 29.72 in 10.0 mi SW 9.2 mph - N/A   Overcast
5:52 AM 37.9 °F 32.1 °F 30.0 °F 73% 29.75 in 10.0 mi SSW 8.1 mph - N/A   Overcast
6:52 AM 37.0 °F 28.5 °F 30.0 °F 76% 29.76 in 10.0 mi SSW 13.8 mph - N/A   Scattered Clouds
7:52 AM 37.0 °F 28.5 °F 30.0 °F 76% 29.78 in 10.0 mi SSW 13.8 mph 23.0 mph N/A   Partly Cloudy
8:52 AM 39.0 °F 29.6 °F 30.0 °F 70% 29.80 in 10.0 mi SSW 18.4 mph 25.3 mph N/A   Mostly Cloudy
9:52 AM 39.9 °F 30.5 °F 27.0 °F 60% 29.81 in 10.0 mi WSW 19.6 mph 34.5 mph N/A   Mostly Cloudy
10:52 AM 41.7 °F 35.2 °F 19.2 °F 41% 29.82 in 10.0 mi West 11.5 mph - N/A   Mostly Cloudy
11:52 AM 44.1 °F 36.8 °F 24.1 °F 45% 29.84 in 10.0 mi WSW 16.1 mph 26.5 mph N/A   Partly Cloudy
12:52 PM 46.0 °F 38.3 °F 24.1 °F 42% 29.84 in 10.0 mi SW 20.7 mph 33.4 mph N/A   Partly Cloudy
1:52 PM 46.0 °F 37.8 °F 21.0 °F 37% 29.85 in 10.0 mi SW 23.0 mph 32.2 mph N/A   Partly Cloudy
2:52 PM 46.9 °F - 19.9 °F 34% 29.87 in 10.0 mi WSW 20.7 mph 29.9 mph N/A   Clear
3:52 PM 46.0 °F 38.3 °F 18.0 °F 33% 29.90 in 10.0 mi WSW 20.7 mph 31.1 mph N/A   Clear
4:52 PM 46.0 °F 38.8 °F 15.1 °F 29% 29.92 in 10.0 mi WSW 18.4 mph 26.5 mph N/A   Clear
5:52 PM 44.1 °F 37.4 °F 17.1 °F 34% 29.94 in 10.0 mi WSW 13.8 mph 19.6 mph N/A   Clear
6:52 PM 41.0 °F 37.1 °F 12.9 °F 32% 29.96 in 10.0 mi SW 5.8 mph - N/A   Clear
7:52 PM 39.0 °F 34.8 °F 14.0 °F 36% 29.98 in 10.0 mi SW 5.8 mph - N/A   Clear
8:52 PM 37.9 °F 34.4 °F 14.0 °F 38% 29.99 in 10.0 mi SSW 4.6 mph - N/A   Clear
9:52 PM 34.0 °F 28.0 °F 17.1 °F 50% 29.99 in 10.0 mi South 6.9 mph - N/A   Clear
10:52 PM 32.0 °F 24.2 °F 18.0 °F 56% 29.98 in 10.0 mi South 9.2 mph - N/A   Clear
11:52 PM 36.0 °F 29.6 °F 17.1 °F 46% 29.98 in 10.0 mi SSW 8.1 mph - N/A   Clear